ATLAS 5 CENTAUR DEB, 43995

Orbit data source: Space-Track

ATLAS 5 CENTAUR DEB, 43995 is space debris in HEO originally from a launch on Wed, 17 Sep 2014 UTC launched from the Air Force Eastern Test Range (AFETR). Debris objects in space refer to the collection of defunct objects orbiting the Earth. Examples of debris include non-operational satellites, rocket bodies, and fragments generated from explosions, collisions, or faulty payload assembly.

Loading next visibility...
ATLAS 5 CENTAUR DEB details
Identifier
43995, 2014-055BA
Orbit
HEO
Last TLE update2 days ago
Origin
Flag of USULA (US)
ManufacturerUnknown
MissionSpacecraft
Bus & MotorUnknown
MassUnknown
Launch date (UTC)
2014-09-17 (10 years ago)
Launch vehicleUnknown
Launch site
Air Force Eastern Test Range (AFETR)
Object type
Payload
Rocket body
Debris
Shape & HBRUnknown
Radar Cross SectionSmall (<0.1 m²)

Expand to show TLE details & history

TLE from 2 days ago
0 ATLAS 5 CENTAUR DEB
1 43995U 14055BA  24360.36771052 -.00000019  00000-0  00000-0 0  9992
2 43995  19.8053 188.8183 4942021  90.5135 323.9839  1.89002620 42887
Epoch: 2024-12-25T08:49Z
Definitive object data (Epoch: 2024-12-25T08:49:30.188Z)
Latitude-0.00003°
Longitude-37.88633°
Altitude14,563.319 km
Speed4.862 km/s
True Right ascension12h 35m 24s
True Declination0° 00' 00"
Sunlit
Object was in daylight at TLE epoch
Visualization TLE readout
Latitude-12.13347°
Longitude-74.69305°
Altitude23,938.307 km
Speed3.446 km/s
Apparent Right ascension09h 58m 25s
Apparent Declination-16° 53' 54"
Sunlit
Object is in daylight
Visualization observer readout
Local Sidereal Time20:58:47
Azimuth326.387° NNW
Elevation-63.595°
Doppler factor1
Orbital elements
Apogee altitude34,913.724 km
Perigee altitude7,599.448 km
Semi-major axis27,634.723 km
Eccentricity0.4942021
Inclination19.8053°
RAAN188.8183°
Arg. of periapsis90.5135°
True anomaly269.62162°
Mean anomaly323.9839°
Eccentric anomaly299.28767°
Mean motion0.47246 °/min
BSTARUnknown
Orbital period761.98 mins
Loading maneuver chart data...

ATLAS 5 CENTAUR DEB Visibility forecast

Observer location: undefined°, undefined

Span
Click to sort rows by Start time (UTC) header in descending order
Start Az.
Max El. time (UTC)
Max El. Az.
Max El.
End time (UTC)
End Az.
720 mins2024-12-27 00:23:46.589Z263.305° W2024-12-27 01:07:46.589Z202.166° SSW31.087°2024-12-27 12:23:46.589Z101.091° ESE
|